Location: Dana
(41.8364°N, 106.7042°W)
Time: 00:12:05
(UTC+00:00)

Vanguard 2 Rocket - All Passes

Search period start: 12 May 2026 00:00
Search period end: 22 May 2026 00:00
Orbit: 553 x 3286 km, 32.9° (Epoch: 11 May)

Date Brightness Start Highest point End Pass type
(mag) Time Alt. Az. Time Alt. Az. Time Alt. Az.
12 May - 00:09:25 10° W 00:27:32 45° SSW 00:41:48 10° SE daylight
12 May - 02:30:52 10° W 02:40:54 18° SW 02:49:07 10° SSW visible
12 May - 16:22:57 10° S 16:32:50 26° SE 16:46:03 10° E daylight
12 May - 18:32:25 10° SW 18:46:46 53° SSE 19:05:43 10° E daylight
12 May - 20:45:47 10° WSW 21:03:28 65° S 21:22:34 10° ESE daylight
12 May - 23:01:39 10° W 23:20:31 54° SSW 23:36:48 10° SE daylight
13 May - 01:20:29 10° W 01:35:15 28° SW 01:46:59 10° S daylight
13 May - 15:21:30 10° SSE 15:27:38 15° SE 15:35:04 10° E daylight
13 May - 17:27:53 10° SW 17:40:09 43° SSE 17:57:29 10° E daylight
13 May - 19:39:49 10° WSW 19:55:48 63° S 20:15:26 10° E daylight
13 May - 21:54:32 10° W 22:13:01 60° SSW 22:31:04 10° ESE daylight
14 May - 00:11:42 10° W 00:28:59 39° SW 00:43:14 10° SSE daylight
14 May - 02:35:58 10° WSW 02:42:05 13° SW 02:47:36 10° SSW visible
14 May - 16:24:08 10° SSW 16:34:14 31° SE 16:48:37 10° E daylight
14 May - 18:34:29 10° SW 18:48:29 57° SSE 19:07:43 10° E daylight
14 May - 20:48:01 10° W 21:05:18 64° S 21:24:34 10° ESE daylight
14 May - 23:03:53 10° W 23:22:05 48° SSW 23:38:29 10° SE daylight
15 May - 01:23:34 10° W 01:36:30 22° SW 01:47:24 10° S daylight
15 May - 15:21:35 10° S 15:28:59 20° SE 15:38:49 10° E daylight
15 May - 17:29:47 10° SW 17:41:47 48° SSE 17:59:32 10° E daylight
15 May - 19:42:06 10° WSW 19:57:39 64° S 20:17:24 10° ESE daylight
15 May - 21:56:48 10° W 22:14:44 56° SSW 22:32:51 10° SE daylight
16 May - 00:14:15 10° W 00:30:20 32° SW 00:44:16 10° SSE daylight
16 May - 16:25:45 10° SSW 16:35:46 37° SE 16:50:53 10° E daylight
16 May - 18:36:44 10° WSW 18:50:20 60° SSE 19:09:41 10° E daylight
16 May - 20:50:21 10° W 21:07:06 61° S 21:26:25 10° ESE daylight
16 May - 23:06:15 10° W 23:23:35 42° SSW 23:39:50 10° SSE daylight
17 May - 01:27:37 10° W 01:37:42 17° SW 01:46:45 10° SSW daylight
17 May - 15:22:37 10° S 15:30:27 25° SE 15:41:42 10° E daylight
17 May - 17:31:55 10° SW 17:43:34 53° SSE 18:01:28 10° E daylight
17 May - 19:44:28 10° WSW 19:59:32 63° S 20:19:17 10° ESE daylight
17 May - 21:59:09 10° W 22:16:22 50° SSW 22:34:25 10° SE daylight
18 May - 00:17:12 10° W 00:31:37 26° SW 00:44:44 10° S daylight
18 May - 14:21:15 10° SSE 14:25:42 14° SE 14:31:08 10° ESE daylight
18 May - 16:27:41 10° SW 16:37:29 42° SSE 16:52:58 10° E daylight
18 May - 18:39:06 10° WSW 18:52:16 62° S 19:11:32 10° E daylight
18 May - 20:52:44 10° W 21:08:55 57° SSW 21:28:07 10° SE daylight
18 May - 23:08:51 10° W 23:25:01 35° SW 23:40:47 10° SSE daylight
19 May - 01:34:29 10° WSW 01:38:55 11° SW 01:43:12 10° SW daylight
19 May - 15:24:10 10° SSW 15:32:04 30° SE 15:44:10 10° E daylight
19 May - 17:34:14 10° WSW 17:45:30 57° SSE 18:03:22 10° E daylight
19 May - 19:46:54 10° W 20:01:28 61° S 20:21:02 10° ESE daylight
19 May - 22:01:38 10° W 22:17:58 44° SSW 22:35:39 10° SE daylight
20 May - 00:20:52 10° W 00:32:54 20° SW 00:44:20 10° S daylight
20 May - 14:21:43 10° S 14:27:16 18° SE 14:34:46 10° E daylight
20 May - 16:29:53 10° SW 16:39:22 47° SSE 16:54:56 10° E daylight
20 May - 18:41:34 10° WSW 18:54:17 62° S 19:13:19 10° ESE daylight
20 May - 20:55:13 10° W 21:10:41 52° SSW 21:29:33 10° SE daylight
20 May - 23:11:47 10° W 23:26:25 29° SW 23:41:12 10° SSE daylight
21 May - 15:26:04 10° SSW 15:33:52 36° SSE 15:46:23 10° E daylight
21 May - 17:36:41 10° WSW 17:47:33 59° S 18:05:11 10° E daylight
21 May - 19:49:25 10° W 20:03:24 57° SSW 20:22:36 10° ESE daylight
21 May - 22:04:19 10° W 22:19:33 37° SSW 22:36:30 10° SSE daylight
